SCP
0 0 0 0 0 0 0 0 0 0 0 0 0 0 0 0 0 0 0 0 0 0 0 0 0 0 0 0 0 0 0 0 0 0 0 0 0 0 0 0 0 0 0 0
0 0 0 0 0 0 0 0 0 0 0 0 0 0 0 0 0 0 0 0 0 0 0 0 0 0 0 0 0 0 0 0 0 0 0 0 0 0 0 0 0 0 0 0
0 0 0 0 0 0 0 0 0 0 0 0 0 0 0 0 0 0 0 0 0 0 0 0 0 0 0 0 0 0 0 0 0 0 0 0 0 0 0 0 0 0 0 0
0 0 0 0 0 0 0 0 0 0 0 0 0 0 0 0 0 0 0 0 0 0 0 0 0 0 0 0 0 0 0 0 0 0 0 0 0 0 0 0 0 0 0 0
0 0 0 0 0 0 0 0 0 0 0 0 0 0 0 0 0 0 0 0 0 0 0 0 0 0 0 0 0 0 0 0 0 0 0 0 0 0 0 0 0 0 0 0
0 0 0 0 0 0 0 0 0 0 0 0 0 0 0 0 0 0 0 0 0 0 0 0 0 0 0 0 0 0 0 0 0 0 0 0 0 0 0 0 0 0 0 0
0 0 0 0 0 0 0 0 0 0 0 0 0 0 0 0 0 0 0 0 0 0 0 0 0 0 0 0 0 0 0 0 0 0 0 0 0 0 0 0 0 0 0 0
0 0 0 0 0 0 0 0 0 0 0 0 0 0 0 0 0 0 0 0 0 0 0 0 0 0 0 0 0 0 0 0 0 0 0 0 0 0 0 0 0 0 0 0
0 0 0 0 0 0 0 0 0 0 0 0 0 0 0 0 0 0 0 0 0 0 0 0 0 0 0 0 0 0 0 0 0 0 0 0 0 0 0 0 0 0 0 0
0 0 0 0 0 0 0 0 0 0 0 0 0 0 0 0 0 0 0 0 0 0 0 0 0 0 0 0 0 0 0 0 0 0 0 0 0 0 0 0 0 0 0 0
0 0 0 0 0 0 0 0 0 0 0 0 0 0 0 0 0 0 0 0 0 0 0 0 0 0 0 0 0 0 0 0 0 0 0 0 0 0 0 0 0 0 0 0
0 0 0 0 0 0 0 0 0 0 0 0 0 0 0 0 0 0 0 0 0 0 0 0 0 0 0 0 0 0 0 0 0 0 0 0 0 0 0 0 0 0 0 0
0 0 0 0 0 0 0 0 0 0 0 0 0 0 0 0 0 0 0 0 0 0 0 0 0 0 0 0 0 0 0 0 0 0 0 0 0 0 0 0 0 0 0 0
0 0 0 0 0 0 0 0 0 0 0 0 0 0 0 0 0 0 0 0 0 0 0 0 0 0 0 0 0 0 0 0 0 0 0 0 0 0 0 0 0 0 0 0
0 0 0 0 0 0 0 0 0 0 0 0 0 0 0 0 0 0 0 0 0 0 0 0 0 0 0 0 0 0 0 0 0 0 0 0 0 0 0 0 0 0 0 0
0 0 0 0 0 0 0 0 0 0 0 0 0 0 0 0 0 0 0 0 0 0 0 0 0 0 0 0 0 0 0 0 0 0 0 0 0 0 0 0 0 0 0 0
0 0 0 0 0 0 0 0 0 0 0 0 0 0 0 0 0 0 0 0 0 0 0 0 0 0 0 0 0 0 0 0 0 0 0 0 0 0 0 0 0 0 0 0
0 0 0 0 0 0 0 0 0 0 0 0 0 0 0 0 0 0 0 0 0 0 0 0 0 0 0 0 0 0 0 0 0 0 0 0 0 0 0 0 0 0 0 0
0 0 0 0 0 0 0 0 0 0 0 0 0 0 0 0 0 0 0 0 0 0 0 0 0 0 0 0 0 0 0 0 0 0 0 0 0 0 0 0 0 0 0 0
0 0 0 0 0 0 0 0 0 0 0 0 0 0 0 0 0 0 0 0 0 0 0 0 0 0 0 0 0 0 0 0 0 0 0 0 0 0 0 0 0 0 0 0
0 0 0 0 0 0 0 0 0 0 0 0 0 0 0 0 0 0 0 0 0 0 0 0 0 0 0 0 0 0 0 0 0 0 0 0 0 0 0 0 0 0 0 0
0 0 0 0 0 0 0 0 0 0 0 0 0 0 0 0 0 0 0 0 0 0 0 0 0 0 0 0 0 0 0 0 0 0 0 0 0 0 0 0 0 0 0 0
0 0 0 0 0 0 0 0 0 0 0 0 0 0 0 0 0 0 0 0 0 0 0 0 0 0 0 0 0 0 0 0 0 0 0 0 0 0 0 0 0 0 0 0
0 0 0 0 0 0 0 0 0 0 0 0 0 0 0 0 0 0 0 0 0 0 0 0 0 0 0 0 0 0 0 0 0 0 0 0 0 0 0 0 0 0 0 0
0 0 0 0 0 0 0 0 0 0 0 0 0 0 0 0 0 0 0 0 0 0 0 0 0 0 0 0 0 0 0 0 0 0 0 1 1 1 0 0 0 0 0 0
0 0 0 0 0 0 0 0 0 0 0 0 0 0 0 0 0 0 0 0 0 0 0 0 0 0 0 0 0 0 0 0 0 0 0 1 1 1 0 0 0 0 0 0
0 0 0 0 0 0 0 0 0 0 0 0 0 0 0 0 0 0 0 0 0 0 0 0 0 0 0 0 0 0 0 0 0 0 0 1 1 1 0 0 0 0 0 0
Wind_Speed
2 2 2 1 2 3 3 2 2 2 2 3 4 4 4 4 5 5 5 5 5 4 3 2 1 1 2 3 4 5 5 6 6 6 6 6 6 6 6 5 6 5 5 4
3 3 3 1 1 3 2 2 2 2 1 3 3 4 5 5 5 6 6 6 5 5 4 3 2 2 2 2 3 4 5 5 4 5 5 6 6 7 6 6 6 6 6 5
4 4 4 3 1 3 3 2 2 2 1 2 3 5 5 6 5 6 6 6 6 6 5 5 4 2 2 2 2 4 4 4 4 5 5 6 6 7 7 7 7 7 7 6
3 5 5 4 4 3 4 3 2 2 3 2 3 5 6 6 6 6 6 6 6 6 5 5 4 3 2 1 2 3 3 3 3 4 5 5 6 7 7 7 6 7 7 7
4 5 2 4 3 2 3 3 2 1 2 3 3 5 5 7 7 6 6 6 5 6 5 5 5 4 3 2 1 3 3 4 4 4 5 5 6 7 7 7 7 7 7 7
5 6 4 4 4 0 4 4 3 1 2 2 1 1 3 6 6 6 6 6 5 5 5 5 5 5 4 3 3 3 4 5 5 5 5 6 6 7 6 7 7 8 8 8
7 5 1 4 1 4 6 3 4 2 2 2 2 4 4 4 5 5 5 6 6 5 5 5 5 5 4 4 4 5 5 5 5 5 6 6 6 6 6 7 7 8 8 8
5 7 2 4 3 2 4 5 3 3 2 2 2 3 4 4 5 5 5 6 6 5 5 5 5 5 5 5 6 6 5 5 6 6 6 5 6 6 6 7 8 8 8 8
1 2 6 3 3 4 2 2 2 2 2 1 1 3 4 4 5 5 6 6 6 6 6 5 5 6 7 6 6 6 6 6 6 6 6 6 6 6 6 6 7 7 7 7
3 3 3 2 3 2 2 2 2 1 1 2 2 3 4 4 5 5 6 6 6 7 7 6 6 6 7 7 7 7 7 7 6 6 6 6 5 6 6 6 7 7 7 7
3 3 3 3 2 2 2 2 2 2 2 2 3 4 4 5 5 6 6 6 6 6 7 8 7 7 7 7 7 8 8 7 6 6 6 6 6 6 8 7 7 7 7 7
2 2 2 2 1 1 1 1 2 2 2 3 3 4 5 5 5 6 6 6 6 7 8 8 8 8 7 7 7 8 8 7 6 5 5 6 6 6 7 9 9 10 10 10
1 1 1 0 0 0 0 1 2 3 3 3 3 4 5 5 5 6 6 7 7 8 8 9 8 8 8 7 8 9 9 8 6 7 6 7 7 7 7 7 9 11 12 12
1 1 2 1 1 0 1 1 2 2 3 3 4 4 5 6 6 7 7 7 8 8 9 9 9 9 9 9 9 9 10 8 8 7 7 8 8 8 8 8 8 7 9 12
1 1 1 1 1 0 1 1 2 3 4 4 4 5 6 7 7 7 8 8 8 9 9 9 10 10 9 9 10 10 9 8 7 8 8 8 8 9 9 10 9 8 7 6
2 2 3 2 1 0 1 2 3 4 5 5 6 6 7 8 8 8 8 8 9 10 10 10 11 11 10 10 10 9 8 10 10 9 9 9 9 9 9 9 9 8 8 7
4 3 2 1 1 2 3 3 4 5 6 6 7 8 8 8 8 8 9 9 9 10 11 11 11 11 11 10 10 8 9 9 10 10 9 9 9 9 9 9 9 9 8 7
2 1 1 1 2 3 4 5 5 6 7 7 8 8 9 9 10 10 10 10 11 11 11 11 11 12 11 11 10 9 9 9 9 9 9 9 9 9 9 10 10 11 9 7
1 1 1 2 2 3 4 5 6 7 7 8 9 9 10 10 10 11 11 11 12 12 12 11 12 13 13 11 11 9 10 11 10 10 9 10 10 10 10 10 10 10 9 8
1 1 2 3 4 4 5 6 7 7 8 9 9 10 11 11 11 11 12 11 10 10 12 13 14 13 13 12 12 10 11 12 12 11 10 10 10 10 10 10 10 10 9 9
2 3 3 4 5 6 7 8 8 9 9 10 10 11 11 12 11 11 11 11 11 11 12 14 11 11 11 11 12 10 11 11 11 11 11 10 10 10 10 10 10 10 9 9
4 5 6 6 7 8 8 8 9 10 11 11 11 11 12 12 12 12 12 10 11 11 11 10 10 12 14 15 11 11 11 12 11 11 10 10 10 10 10 11 10 9 9 9
6 7 7 8 9 9 10 10 10 10 11 12 12 13 13 12 10 11 11 10 10 13 12 11 13 17 20 14 11 11 12 12 11 11 10 10 10 10 10 11 10 9 9 8
7 8 8 9 9 10 11 11 11 10 11 12 12 12 12 11 10 10 10 12 13 14 12 12 16 19 18 11 11 11 11 11 10 10 10 10 10 10 10 10 9 9 9 10
8 9 9 9 9 9 10 11 11 11 11 10 12 12 11 9 10 10 11 12 14 14 12 13 17 18 14 11 11 11 10 10 10 10 10 10 9 9 9 9 8 8 8 8
8 8 8 9 9 8 8 8 8 9 9 10 9 9 9 9 10 10 10 12 15 15 12 10 11 12 11 11 11 11 11 11 11 10 11 10 10 10 9 9 11 9 8 7
8 8 7 8 8 8 8 8 9 9 9 10 10 10 10 10 10 10 12 11 11 11 11 10 10 10 10 10 10 10 10 10 10 10 10 9 8 8 8 9 7 7 6 6
Wind_Direction
77 80 128 123 159 187 231 281 272 122 110 52 32 33 44 47 48 48 44 36 29 26 21 10 330 278 253 238 218 213 216 222 227 230 228 234 238 237 238 243 249 249 252 255
157 139 154 138 166 184 201 228 202 167 129 42 42 50 53 50 44 37 30 24 17 16 12 4 355 318 275 253 235 220 223 231 235 239 232 233 237 240 236 236 242 245 246 250
192 163 206 213 205 180 147 144 190 195 65 53 84 64 50 44 39 29 19 14 10 5 1 355 352 340 304 263 232 226 228 231 236 241 236 236 236 235 234 233 237 243 243 245
217 201 225 81 83 126 126 100 88 68 66 71 88 95 67 41 30 28 18 10 6 358 355 349 350 345 330 299 247 239 242 242 242 250 246 243 241 237 236 238 234 239 244 247
225 219 188 152 145 174 182 126 84 92 81 83 115 143 87 40 21 17 14 9 4 353 352 350 350 344 332 319 288 263 261 260 254 249 248 245 241 239 239 238 236 235 238 241
215 224 223 122 102 267 214 163 105 95 79 77 160 213 56 26 16 15 14 10 4 356 359 359 352 339 330 329 316 295 280 271 264 255 248 245 244 245 242 241 239 239 238 239
223 230 189 73 89 196 214 103 94 90 79 72 36 24 28 14 14 12 10 7 360 356 356 351 344 331 323 328 323 314 300 284 271 259 253 251 248 245 242 240 241 242 242 241
214 224 173 89 150 185 62 77 88 71 59 58 38 28 16 8 6 3 1 1 355 348 347 345 339 325 319 324 321 314 304 290 278 268 261 253 247 246 243 238 239 241 243 243
251 59 78 80 69 53 70 90 74 54 37 18 355 354 353 350 351 352 350 349 345 337 333 339 338 324 316 322 317 308 299 289 283 276 263 256 249 243 242 236 239 243 242 243
184 142 115 95 90 83 69 60 42 23 4 346 332 335 335 335 336 340 342 338 333 329 327 332 333 324 317 319 312 303 297 293 288 282 273 260 253 250 246 242 240 242 242 244
207 161 156 132 96 62 55 46 33 23 355 331 323 324 326 326 330 333 332 332 327 321 319 321 324 320 322 319 309 302 299 296 295 288 283 273 259 256 255 250 250 247 246 245
220 153 190 145 77 36 32 13 352 338 335 332 321 319 320 320 324 324 324 325 321 318 318 318 319 316 318 317 307 303 302 302 298 291 284 277 272 265 254 258 258 249 253 255
2 65 349 99 102 58 356 344 332 325 323 321 323 317 312 313 316 317 317 318 318 317 315 314 315 314 316 314 307 301 298 298 295 291 287 280 274 272 273 261 247 246 243 242
143 173 187 161 125 353 344 340 332 330 330 323 318 315 310 308 310 310 311 315 313 310 308 308 308 308 313 310 302 297 296 293 289 286 284 281 278 275 272 272 269 258 240 233
149 218 171 150 164 285 321 314 314 323 329 325 321 313 309 306 305 306 308 309 305 302 304 307 306 307 311 306 300 296 294 292 291 289 284 279 278 275 273 270 268 266 259 233
167 147 146 150 143 328 321 316 314 318 318 315 312 311 308 303 300 299 301 303 301 302 305 304 302 305 306 302 298 293 290 288 286 286 283 279 276 275 274 271 267 264 258 251
166 160 164 181 266 301 311 314 313 311 308 305 306 305 301 297 295 298 301 301 298 297 298 298 300 302 300 296 293 290 290 289 281 279 279 280 278 276 275 273 269 264 260 251
165 175 220 264 286 298 308 312 311 308 305 303 299 293 293 294 296 299 301 300 298 296 297 301 304 304 298 295 292 289 286 286 286 283 282 280 279 277 275 271 269 267 264 251
161 201 264 288 294 296 302 308 309 308 307 302 297 294 294 293 295 297 299 299 299 299 304 307 308 298 295 294 292 285 284 285 285 282 280 278 274 273 273 272 269 265 262 256
219 255 275 286 289 292 295 299 301 301 303 303 299 296 294 294 296 297 298 295 294 298 303 306 302 298 296 293 290 284 283 283 284 283 280 279 276 274 273 273 272 270 263 255
258 271 280 287 291 291 291 293 294 295 297 298 296 295 296 297 297 295 294 294 297 301 302 299 295 295 296 298 293 285 283 282 281 280 278 277 276 274 273 272 270 269 266 261
269 277 282 286 287 288 290 292 292 292 292 291 290 289 291 293 295 295 290 288 293 299 297 295 296 300 303 300 289 285 284 282 280 278 276 275 274 274 273 272 269 266 265 262
274 277 280 283 285 289 291 289 288 288 288 288 289 289 289 291 292 290 290 292 294 298 296 291 296 299 300 296 289 285 283 281 279 277 277 276 275 274 273 271 268 265 264 262
277 278 281 284 285 285 285 287 290 289 287 286 284 285 287 288 286 284 286 291 292 293 290 291 293 294 296 292 289 287 286 285 282 279 278 277 275 275 274 272 269 267 264 262
275 277 278 280 280 280 284 288 289 288 285 283 285 287 286 285 286 290 291 291 292 291 288 291 293 293 290 287 287 287 287 285 285 283 278 275 275 276 275 273 271 266 263 259
273 275 276 275 277 279 281 282 282 285 287 288 289 290 291 289 287 286 287 289 289 288 286 288 289 289 287 287 288 287 288 288 285 280 277 277 275 274 270 267 266 263 260 258
272 272 271 271 271 271 273 275 277 280 284 287 290 293 293 292 290 289 289 289 290 288 286 286 287 288 289 288 287 288 289 289 287 284 282 277 274 271 269 266 264 263 260 256